ARIANE 44L DEB, 24751

Orbit data source: Space-Track

ARIANE 44L DEB, 24751 is space debris in HEO originally from a launch on Tue, 15 Jan 1991 UTC launched from the French Guiana (FRGUI). Debris objects in space refer to the collection of defunct objects orbiting the Earth. Examples of debris include non-operational satellites, rocket bodies, and fragments generated from explosions, collisions, or faulty payload assembly.

Loading next visibility...
Identifier
24751, 1991-003K
Orbit
HEO
Country
Flag of FRFR
Related business
Manufacturer
Unknown
Mission
Spacecraft
Bus & Motor
Unknown
Mass
Unknown
Launch date (UTC)
1991-01-15 (35 years ago)
Launch vehicle
Unknown
Launch site
French Guiana (FRGUI)
Object type
Payload
Rocket body
Debris
Shape & HBR
Unknown shape, 0.8 m
Radar Cross Section
Large (>1 m²)

Expand to show TLE details & history
Last TLE update: 2 days ago

TLE from 2 days ago
0 ARIANE 44L DEB
1 24751U 91003K   26171.18592391 -.00000086  00000-0 -25721-3 0  9993
2 24751   7.8745 178.5301 6156278 166.4204 223.7537  3.61376101355038
Epoch: 2026-06-20T04:27Z
TLE epoch observation values (Epoch: 2026-06-20T04:27:43.825Z)
Latitude
-0.00005°
Longitude
-156.77969°
Altitude
21,342.12 km
Speed
2.557 km/s
True Right ascension
11h 54m 13s
True Declination
0° 00' 00"
Sunlit
Object was in daylight at epoch
Visualization orbit readout
Latitude
Unknown
Longitude
Unknown
Altitude
Unknown
Speed
Unknown
Apparent Right ascension
Unknown
Apparent Declination
Unknown
Sunlit
N/A
Visualization observer readout
Local Sidereal Time
00:39:54
Azimuth
Unknown
Elevation
Unknown
Doppler factor
Unknown
Orbital elements
Apogee altitude
22,610.104 km
Perigee altitude
518.423 km
Semi-major axis
17,942.401 km
Eccentricity
0.61563
Inclination
7.8745°
RAAN
178.5301°
Arg. of periapsis
166.4204°
True anomaly
193.60151°
Mean anomaly
223.7537°
Eccentric anomaly
207.47833°
Mean motion
0.90307 °/min
Orbital period
398.64 mins
BSTAR
-0.00025721
Loading maneuver chart data...
Computing Atmospheric mass density...
Loading historical data...
Loading historical data...
Loading historical data...
Loading historical data...
Loading historical data...
Loading historical data...
Loading historical data...

Documentation

Showing up to 5 results
|